THOR ABLESTAR DEB, 967

Orbit data source: Space-Track

THOR ABLESTAR DEB, 967 is space debris in LEO originally from a launch on Sun, 13 Dec 1964 UTC launched from the Air Force Western Test Range (AFWTR). Debris objects in space refer to the collection of defunct objects orbiting the Earth. Examples of debris include non-operational satellites, rocket bodies, and fragments generated from explosions, collisions, or faulty payload assembly.

Loading next visibility...
Identifier
967, 1964-083F
Orbit
LEO
Country
Flag of USUS
Related business
Manufacturer
Unknown
Mission
Spacecraft
Bus & Motor
Unknown
Mass
Unknown
Launch date (UTC)
1964-12-13 (61 years ago)
Launch vehicle
Unknown
Launch site
Air Force Western Test Range (AFWTR)
Object type
Payload
Rocket body
Debris
Shape & HBR
Unknown shape, 0.1 m
Radar Cross Section
Small (<0.1 m²)

Expand to show TLE details & history
Last TLE update: 13 hours ago

TLE from 13 hours ago
0 THOR ABLESTAR DEB
1 00967U 64083F   25305.60073266  .00000346  00000-0  40023-3 0  9993
2 00967  89.9523 174.9285 0021975 355.8756  32.8416 13.67299667 24881
Epoch: 2025-11-01T14:25Z
TLE epoch observation values (Epoch: 2025-11-01T14:25:03.301Z)
Latitude
28.8976°
Longitude
-82.43754°
Altitude
999.306 km
Speed
7.361 km/s
True Right ascension
11h 39m 49s
True Declination
28° 45' 26"
Sunlit
Object was in daylight at epoch
Visualization orbit readout
Latitude
Unknown
Longitude
Unknown
Altitude
Unknown
Speed
Unknown
Apparent Right ascension
Unknown
Apparent Declination
Unknown
Sunlit
N/A
Visualization observer readout
Local Sidereal Time
23:04:28
Azimuth
Unknown
Elevation
Unknown
Doppler factor
Unknown
Orbital elements
Apogee altitude
1,022.533 km
Perigee altitude
990.079 km
Semi-major axis
7,384.443 km
Eccentricity
0.0022
Inclination
89.9523°
RAAN
174.9285°
Arg. of periapsis
355.8756°
True anomaly
32.97848°
Mean anomaly
32.8416°
Eccentric anomaly
32.91001°
Mean motion
3.42032 °/min
Orbital period
105.25 mins
BSTAR
0.00040023
Loading maneuver chart data...
Computing Atmospheric mass density...

Documentation

Showing up to 5 results
|